Change the Weather History Date:

Wednesday, December 18, 2013

  Actual Average Record
Temperature  
Mean Temperature 54 °F -  
Max Temperature 63 °F 63 °F 82 °F (1990)
Min Temperature 45 °F 45 °F 29 °F (1988)
Degree Days  
Heating Degree Days 10    
Growing Degree Days 4 (Base 50)    
Moisture  
Dew Point 39 °F    
Average Humidity 65    
Maximum Humidity 86    
Minimum Humidity 21    
Precipitation  
Precipitation 0.00 in - - ()
Sea Level Pressure  
Sea Level Pressure 30.28 in    
Wind  
Wind Speed 7 mph (NW)    
Max Wind Speed 12 mph    
Max Gust Speed -    
Visibility 10 miles    
Events      
Averages and records for this station are not official NWS values.
T = Trace of Precipitation, MM = Missing Value Source: NWS Daily Summary

Daily Weather History Graph

Daily Weather History Graph

Search for Another Location

Airport or City:

Trip Planner

Search our weather history database for the weather conditions in past years. The results will help you decide how hot, cold, wet, or windy it might be!

Date:

Astronomy

Dec. 18, 2013 Rise Set
Actual Time 7:15 AM EST 5:28 PM EST
Civil Twilight 6:49 AM EST 5:55 PM EST
Nautical Twilight 6:19 AM EST 6:25 PM EST
Astronomical Twilight 5:50 AM EST 6:54 PM EST
Moon 6:53 PM EST (12/18) 7:59 AM EST (12/18)
Length of Visible Light 11h 06m
Length of Day
10h 13m
Full, 98% of the Moon is Illuminated
Dec 18
Full
Dec 25
Last Quarter
Jan 1
New
Jan 7
First Quarter
Jan 15
Full

Hourly Weather History & Observations

Time (EST) Temp. Windchill Dew Point Humidity Pressure Visibility Wind Dir Wind Speed Gust Speed Precip Events Conditions
12:58 AM 48.0 °F - 41.0 °F 77% 30.22 in 10.0 mi West 8.1 mph - N/A   Clear
1:58 AM 48.0 °F - 42.1 °F 80% 30.22 in 10.0 mi West 6.9 mph - N/A   Clear
2:58 AM 48.0 °F - 41.0 °F 77% 30.22 in 10.0 mi West 9.2 mph - N/A   Clear
3:58 AM 46.0 °F 42.5 °F 39.9 °F 79% 30.23 in 10.0 mi West 6.9 mph - N/A   Clear
4:58 AM 46.9 °F - 39.0 °F 74% 30.24 in 10.0 mi West 6.9 mph - N/A   Clear
5:58 AM 46.0 °F 43.1 °F 39.0 °F 76% 30.25 in 10.0 mi WNW 5.8 mph - N/A   Clear
6:58 AM 46.9 °F - 39.0 °F 74% 30.26 in 10.0 mi WNW 6.9 mph - N/A   Clear
7:58 AM 46.9 °F - 39.0 °F 74% 30.28 in 10.0 mi NW 6.9 mph - N/A   Clear
8:58 AM 52.0 °F - 39.9 °F 63% 30.30 in 10.0 mi NNW 9.2 mph - N/A   Clear
9:58 AM 55.0 °F - 42.1 °F 62% 30.32 in 10.0 mi NNW 8.1 mph - N/A   Clear
10:58 AM 57.9 °F - 39.9 °F 51% 30.33 in 10.0 mi North 11.5 mph - N/A   Clear
11:58 AM 60.1 °F - 32.0 °F 35% 30.31 in 10.0 mi North 8.1 mph - N/A   Clear
12:58 PM 63.0 °F - 21.9 °F 21% 30.27 in 10.0 mi NW 8.1 mph - N/A   Clear
1:58 PM 63.0 °F - 28.9 °F 28% 30.26 in 10.0 mi NNE 6.9 mph - N/A   Clear
2:58 PM 61.0 °F - 39.0 °F 44% 30.26 in 10.0 mi NE 8.1 mph - N/A   Clear
3:58 PM 59.0 °F - 39.9 °F 49% 30.26 in 10.0 mi NE 8.1 mph - N/A   Clear
4:58 PM 57.0 °F - 41.0 °F 55% 30.27 in 10.0 mi NNE 6.9 mph - N/A   Clear
5:58 PM 53.1 °F - 42.1 °F 66% 30.28 in 10.0 mi North 4.6 mph - N/A   Clear
6:58 PM 52.0 °F - 43.0 °F 71% 30.29 in 10.0 mi NNW 3.5 mph - N/A   Clear
7:58 PM 48.0 °F - 43.0 °F 83% 30.30 in 6.0 mi Calm Calm - N/A   Haze
8:58 PM 46.9 °F - 42.1 °F 83% 30.31 in 10.0 mi Calm Calm - N/A   Clear
9:58 PM 48.0 °F - 42.1 °F 80% 30.32 in 10.0 mi NNW 3.5 mph - N/A   Clear
10:58 PM 46.0 °F - 41.0 °F 83% 30.33 in 10.0 mi Calm Calm - N/A   Clear
11:58 PM 45.0 °F - 41.0 °F 86% 30.32 in 10.0 mi Calm Calm - N/A   Clear